Time,TemperatureF,DewpointF,PressureIn,WindDirection,WindDirectionDegrees,WindSpeedMPH,WindSpeedGustMPH,Humidity,HourlyPrecipIn,Conditions,Clouds,dailyrainin,SoftwareType,DateUTC
2013-09-29 00:02:00,60.4,42.2,30.01,WNW,285,0.0,2.0,51,0.00,,,0.00,Wunderground v.1.15,2013-09-29 07:02:00,
2013-09-29 00:07:00,60.2,42.0,30.01,WNW,285,0.0,2.0,51,0.00,,,0.00,Wunderground v.1.15,2013-09-29 07:07:00,
2013-09-29 00:22:00,59.9,41.7,30.01,WNW,285,0.0,0.0,51,0.00,,,0.00,Wunderground v.1.15,2013-09-29 07:22:00,
2013-09-29 00:27:00,59.7,41.5,30.01,WNW,285,0.0,0.0,51,0.00,,,0.00,Wunderground v.1.15,2013-09-29 07:27:00,
2013-09-29 00:37:00,59.4,41.3,30.01,WNW,285,0.0,0.0,51,0.00,,,0.00,Wunderground v.1.15,2013-09-29 07:37:00,
2013-09-29 00:47:00,59.1,41.5,30.01,WNW,285,0.0,0.0,52,0.00,,,0.00,Wunderground v.1.15,2013-09-29 07:47:00,
2013-09-29 00:52:00,59.0,41.4,30.01,WNW,285,0.0,0.0,52,0.00,,,0.00,Wunderground v.1.15,2013-09-29 07:52:00,
2013-09-29 01:02:00,59.1,41.5,30.01,WNW,285,0.0,1.0,52,0.00,,,0.00,Wunderground v.1.15,2013-09-29 08:02:00,
2013-09-29 01:12:00,58.9,41.8,30.01,WNW,285,0.0,1.0,53,0.00,,,0.00,Wunderground v.1.15,2013-09-29 08:12:00,
2013-09-29 01:22:00,58.7,42.1,30.01,WNW,285,0.0,0.0,54,0.00,,,0.00,Wunderground v.1.15,2013-09-29 08:22:00,
2013-09-29 01:32:00,58.3,41.7,30.01,WNW,285,0.0,0.0,54,0.00,,,0.00,Wunderground v.1.15,2013-09-29 08:32:00,
2013-09-29 01:42:00,58.0,41.4,30.01,WNW,285,0.0,0.0,54,0.00,,,0.00,Wunderground v.1.15,2013-09-29 08:42:00,
2013-09-29 01:47:00,57.8,41.7,30.01,WNW,285,0.0,0.0,55,0.00,,,0.00,Wunderground v.1.15,2013-09-29 08:47:00,
2013-09-29 01:57:00,57.4,41.8,30.01,WNW,285,0.0,0.0,56,0.00,,,0.00,Wunderground v.1.15,2013-09-29 08:57:00,
2013-09-29 02:02:00,57.2,41.6,30.01,WNW,285,0.0,1.0,56,0.00,,,0.00,Wunderground v.1.15,2013-09-29 09:02:00,
2013-09-29 02:12:00,57.0,41.4,30.01,WNW,285,0.0,1.0,56,0.00,,,0.00,Wunderground v.1.15,2013-09-29 09:12:00,
2013-09-29 02:17:00,56.9,41.8,30.02,WNW,285,0.0,1.0,57,0.00,,,0.00,Wunderground v.1.15,2013-09-29 09:17:00,
2013-09-29 02:27:00,56.6,41.5,30.02,WNW,285,0.0,0.0,57,0.00,,,0.00,Wunderground v.1.15,2013-09-29 09:27:00,
2013-09-29 02:32:00,56.4,41.3,30.02,WNW,285,0.0,0.0,57,0.00,,,0.00,Wunderground v.1.15,2013-09-29 09:32:00,
2013-09-29 02:42:00,56.3,41.7,30.01,WNW,285,0.0,0.0,58,0.00,,,0.00,Wunderground v.1.15,2013-09-29 09:42:00,
2013-09-29 02:47:00,56.1,42.0,30.01,WNW,285,0.0,0.0,59,0.00,,,0.00,Wunderground v.1.15,2013-09-29 09:47:00,
2013-09-29 02:57:00,55.7,42.0,30.01,WNW,285,0.0,0.0,60,0.00,,,0.00,Wunderground v.1.15,2013-09-29 09:57:00,
2013-09-29 03:02:00,55.6,41.9,30.01,WNW,285,0.0,1.0,60,0.00,,,0.00,Wunderground v.1.15,2013-09-29 10:02:00,
2013-09-29 03:12:00,55.6,41.0,30.01,WNW,285,0.0,1.0,58,0.00,,,0.00,Wunderground v.1.15,2013-09-29 10:12:00,
2013-09-29 03:17:00,55.5,41.4,30.01,WNW,285,0.0,1.0,59,0.00,,,0.00,Wunderground v.1.15,2013-09-29 10:17:00,
2013-09-29 03:27:00,55.2,41.1,30.00,WNW,285,0.0,0.0,59,0.00,,,0.00,Wunderground v.1.15,2013-09-29 10:27:00,
2013-09-29 03:37:00,54.9,41.3,30.00,WNW,285,0.0,0.0,60,0.00,,,0.00,Wunderground v.1.15,2013-09-29 10:37:00,
2013-09-29 03:42:00,54.8,41.2,30.00,WNW,285,0.0,0.0,60,0.00,,,0.00,Wunderground v.1.15,2013-09-29 10:42:00,
2013-09-29 03:52:00,54.5,41.3,30.00,WNW,285,0.0,0.0,61,0.00,,,0.00,Wunderground v.1.15,2013-09-29 10:52:00,
2013-09-29 04:02:00,54.2,41.5,30.00,WNW,285,0.0,1.0,62,0.00,,,0.00,Wunderground v.1.15,2013-09-29 11:02:00,
2013-09-29 04:07:00,54.1,41.4,30.00,WNW,285,0.0,1.0,62,0.00,,,0.00,Wunderground v.1.15,2013-09-29 11:07:00,
2013-09-29 04:12:00,53.9,42.0,30.00,WNW,285,0.0,1.0,64,0.00,,,0.00,Wunderground v.1.15,2013-09-29 11:12:00,
2013-09-29 04:22:00,53.8,41.9,30.00,WNW,285,0.0,0.0,64,0.00,,,0.00,Wunderground v.1.15,2013-09-29 11:22:00,
2013-09-29 04:32:00,53.8,41.5,30.00,WNW,285,0.0,0.0,63,0.00,,,0.00,Wunderground v.1.15,2013-09-29 11:32:00,
2013-09-29 04:42:00,53.7,41.4,30.00,WNW,285,0.0,0.0,63,0.00,,,0.00,Wunderground v.1.15,2013-09-29 11:42:00,
2013-09-29 04:52:00,53.5,41.6,30.00,WNW,285,0.0,0.0,64,0.00,,,0.00,Wunderground v.1.15,2013-09-29 11:52:00,
2013-09-29 05:02:00,53.0,41.5,30.00,WNW,285,0.0,1.0,65,0.00,,,0.00,Wunderground v.1.15,2013-09-29 12:02:00,
2013-09-29 05:12:00,52.6,41.6,30.01,WNW,285,0.0,1.0,66,0.00,,,0.00,Wunderground v.1.15,2013-09-29 12:12:00,
2013-09-29 05:22:00,52.3,41.7,30.01,WNW,285,0.0,0.0,67,0.00,,,0.00,Wunderground v.1.15,2013-09-29 12:22:00,
2013-09-29 05:32:00,52.2,42.0,30.01,WNW,285,0.0,0.0,68,0.00,,,0.00,Wunderground v.1.15,2013-09-29 12:32:00,
2013-09-29 05:42:00,52.1,41.5,30.02,WNW,285,0.0,0.0,67,0.00,,,0.00,Wunderground v.1.15,2013-09-29 12:42:00,
2013-09-29 05:52:00,52.0,41.8,30.02,WNW,285,0.0,0.0,68,0.00,,,0.00,Wunderground v.1.15,2013-09-29 12:52:00,
2013-09-29 06:02:00,51.9,42.0,30.02,WNW,285,0.0,2.0,69,0.00,,,0.00,Wunderground v.1.15,2013-09-29 13:02:00,
2013-09-29 06:12:00,51.7,41.5,30.02,WNW,285,0.0,2.0,68,0.00,,,0.00,Wunderground v.1.15,2013-09-29 13:12:00,
2013-09-29 06:17:00,51.8,41.9,30.02,WNW,285,0.0,2.0,69,0.00,,,0.00,Wunderground v.1.15,2013-09-29 13:17:00,
2013-09-29 06:27:00,51.8,41.9,30.03,WNW,285,0.0,0.0,69,0.00,,,0.00,Wunderground v.1.15,2013-09-29 13:27:00,
2013-09-29 06:32:00,51.7,41.9,30.03,WNW,285,0.0,0.0,69,0.00,,,0.00,Wunderground v.1.15,2013-09-29 13:32:00,
2013-09-29 06:42:00,51.6,41.8,30.03,WNW,285,0.0,0.0,69,0.00,,,0.00,Wunderground v.1.15,2013-09-29 13:42:00,
2013-09-29 06:47:00,51.6,41.8,30.03,WNW,285,0.0,0.0,69,0.00,,,0.00,Wunderground v.1.15,2013-09-29 13:47:00,
2013-09-29 06:57:00,51.5,41.7,30.03,WNW,285,0.0,0.0,69,0.00,,,0.00,Wunderground v.1.15,2013-09-29 13:57:00,
2013-09-29 07:07:00,51.5,42.0,30.02,WNW,285,0.0,1.0,70,0.00,,,0.00,Wunderground v.1.15,2013-09-29 14:07:00,
2013-09-29 07:17:00,51.7,41.9,30.03,WNW,285,0.0,1.0,69,0.00,,,0.00,Wunderground v.1.15,2013-09-29 14:17:00,
2013-09-29 07:22:00,51.8,42.3,30.03,WNW,285,0.0,0.0,70,0.00,,,0.00,Wunderground v.1.15,2013-09-29 14:22:00,
2013-09-29 07:32:00,52.5,42.6,30.02,WNW,285,0.0,0.0,69,0.00,,,0.00,Wunderground v.1.15,2013-09-29 14:32:00,
2013-09-29 07:42:00,53.9,42.4,30.03,WNW,285,0.0,0.0,65,0.00,,,0.00,Wunderground v.1.15,2013-09-29 14:42:00,
2013-09-29 07:52:00,55.1,42.7,30.03,WNW,285,0.0,0.0,63,0.00,,,0.00,Wunderground v.1.15,2013-09-29 14:52:00,
2013-09-29 08:02:00,56.5,43.2,30.03,WNW,285,0.0,1.0,61,0.00,,,0.00,Wunderground v.1.15,2013-09-29 15:02:00,
2013-09-29 08:12:00,58.7,44.0,30.03,WNW,285,0.0,1.0,58,0.00,,,0.00,Wunderground v.1.15,2013-09-29 15:12:00,
2013-09-29 08:22:00,61.0,44.2,30.03,WNW,285,0.0,0.0,54,0.00,,,0.00,Wunderground v.1.15,2013-09-29 15:22:00,
2013-09-29 08:32:00,62.9,43.4,30.03,WNW,285,0.0,0.0,49,0.00,,,0.00,Wunderground v.1.15,2013-09-29 15:32:00,
2013-09-29 08:42:00,64.6,43.9,30.03,WNW,285,1.0,1.0,47,0.00,,,0.00,Wunderground v.1.15,2013-09-29 15:42:00,
2013-09-29 08:52:00,66.0,43.5,30.04,WNW,285,2.0,2.0,44,0.00,,,0.00,Wunderground v.1.15,2013-09-29 15:52:00,
2013-09-29 09:02:00,67.2,42.7,30.04,WNW,285,1.0,2.0,41,0.00,,,0.00,Wunderground v.1.15,2013-09-29 16:02:00,
2013-09-29 09:12:00,68.5,41.9,30.04,WNW,285,1.0,2.0,38,0.00,,,0.00,Wunderground v.1.15,2013-09-29 16:12:00,
2013-09-29 09:22:00,69.6,41.5,30.03,WNW,285,0.0,1.0,36,0.00,,,0.00,Wunderground v.1.15,2013-09-29 16:22:00,
2013-09-29 09:32:00,70.6,41.6,30.04,WNW,285,1.0,1.0,35,0.00,,,0.00,Wunderground v.1.15,2013-09-29 16:32:00,
2013-09-29 09:42:00,71.7,41.0,30.04,NNW,339,1.0,2.0,33,0.00,,,0.00,Wunderground v.1.15,2013-09-29 16:42:00,
2013-09-29 09:52:00,72.3,41.6,30.05,WNW,290,2.0,2.0,33,0.00,,,0.00,Wunderground v.1.15,2013-09-29 16:52:00,
2013-09-29 09:57:00,72.8,42.0,30.05,NNW,347,2.0,3.0,33,0.00,,,0.00,Wunderground v.1.15,2013-09-29 16:57:00,
2013-09-29 10:07:00,73.3,41.6,30.04,NNW,328,2.0,4.0,32,0.00,,,0.00,Wunderground v.1.15,2013-09-29 17:07:00,
2013-09-29 10:12:00,73.7,41.2,30.04,NNE,13,1.0,4.0,31,0.00,,,0.00,Wunderground v.1.15,2013-09-29 17:12:00,
2013-09-29 10:22:00,74.6,42.0,30.04,West,278,1.0,1.0,31,0.00,,,0.00,Wunderground v.1.15,2013-09-29 17:22:00,
2013-09-29 10:32:00,75.5,42.7,30.04,NNW,347,1.0,2.0,31,0.00,,,0.00,Wunderground v.1.15,2013-09-29 17:32:00,
2013-09-29 10:42:00,76.0,42.3,30.04,NE,42,1.0,1.0,30,0.00,,,0.00,Wunderground v.1.15,2013-09-29 17:42:00,
2013-09-29 10:52:00,77.3,41.6,30.03,SW,215,1.0,1.0,28,0.00,,,0.00,Wunderground v.1.15,2013-09-29 17:52:00,
2013-09-29 11:02:00,77.6,40.0,30.03,SW,233,2.0,2.0,26,0.00,,,0.00,Wunderground v.1.15,2013-09-29 18:02:00,
2013-09-29 11:12:00,79.4,40.5,30.02,SW,233,0.0,5.0,25,0.00,,,0.00,Wunderground v.1.15,2013-09-29 18:12:00,
2013-09-29 11:22:00,81.4,41.1,30.02,SW,233,1.0,1.0,24,0.00,,,0.00,Wunderground v.1.15,2013-09-29 18:22:00,
2013-09-29 11:32:00,81.1,38.6,30.02,SW,233,2.0,3.0,22,0.00,,,0.00,Wunderground v.1.15,2013-09-29 18:32:00,
2013-09-29 11:42:00,81.9,38.1,30.02,South,179,2.0,2.0,21,0.00,,,0.00,Wunderground v.1.15,2013-09-29 18:42:00,
2013-09-29 11:52:00,81.6,39.1,30.02,WSW,244,3.0,3.0,22,0.00,,,0.00,Wunderground v.1.15,2013-09-29 18:52:00,
2013-09-29 11:57:00,82.0,38.2,30.02,WSW,243,2.0,3.0,21,0.00,,,0.00,Wunderground v.1.15,2013-09-29 18:57:00,
2013-09-29 12:07:00,83.1,39.1,30.01,SW,233,2.0,4.0,21,0.00,,,0.00,Wunderground v.1.15,2013-09-29 19:07:00,
2013-09-29 12:17:00,83.9,41.0,30.01,South,174,2.0,6.0,22,0.00,,,0.00,Wunderground v.1.15,2013-09-29 19:17:00,
2013-09-29 12:27:00,84.5,39.0,30.01,SSW,196,3.0,4.0,20,0.00,,,0.00,Wunderground v.1.15,2013-09-29 19:27:00,
2013-09-29 12:37:00,84.6,41.6,30.00,SW,215,3.0,3.0,22,0.00,,,0.00,Wunderground v.1.15,2013-09-29 19:37:00,
2013-09-29 12:42:00,85.1,42.0,30.00,SSW,198,3.0,3.0,22,0.00,,,0.00,Wunderground v.1.15,2013-09-29 19:42:00,
2013-09-29 12:52:00,85.8,38.8,29.99,SW,226,3.0,3.0,19,0.00,,,0.00,Wunderground v.1.15,2013-09-29 19:52:00,
2013-09-29 13:02:00,86.2,39.1,29.98,SW,227,3.0,7.0,19,0.00,,,0.00,Wunderground v.1.15,2013-09-29 20:02:00,
2013-09-29 13:07:00,86.1,39.0,29.98,SSW,195,4.0,7.0,19,0.00,,,0.00,Wunderground v.1.15,2013-09-29 20:07:00,
2013-09-29 13:17:00,85.7,35.9,29.98,SW,236,4.0,7.0,17,0.00,,,0.00,Wunderground v.1.15,2013-09-29 20:17:00,
2013-09-29 13:22:00,85.8,37.4,29.97,SSW,207,3.0,3.0,18,0.00,,,0.00,Wunderground v.1.15,2013-09-29 20:22:00,
2013-09-29 13:32:00,86.7,36.7,29.97,WSW,254,3.0,4.0,17,0.00,,,0.00,Wunderground v.1.15,2013-09-29 20:32:00,
2013-09-29 13:42:00,87.2,38.5,29.96,South,190,3.0,3.0,18,0.00,,,0.00,Wunderground v.1.15,2013-09-29 20:42:00,
2013-09-29 13:52:00,87.5,37.3,29.95,SSW,192,4.0,4.0,17,0.00,,,0.00,Wunderground v.1.15,2013-09-29 20:52:00,
2013-09-29 14:02:00,87.7,40.3,29.95,WNW,286,4.0,10.0,19,0.00,,,0.00,Wunderground v.1.15,2013-09-29 21:02:00,
2013-09-29 14:12:00,88.1,39.3,29.94,SSW,197,4.0,10.0,18,0.00,,,0.00,Wunderground v.1.15,2013-09-29 21:12:00,
2013-09-29 14:17:00,88.1,37.8,29.94,SW,229,5.0,10.0,17,0.00,,,0.00,Wunderground v.1.15,2013-09-29 21:17:00,
2013-09-29 14:27:00,87.8,37.6,29.94,SSW,202,5.0,7.0,17,0.00,,,0.00,Wunderground v.1.15,2013-09-29 21:27:00,
2013-09-29 14:32:00,88.0,39.2,29.94,WSW,245,5.0,9.0,18,0.00,,,0.00,Wunderground v.1.15,2013-09-29 21:32:00,
2013-09-29 14:42:00,88.7,33.4,29.94,West,275,5.0,5.0,14,0.00,,,0.00,Wunderground v.1.15,2013-09-29 21:42:00,
2013-09-29 14:47:00,87.8,34.4,29.94,SW,230,6.0,6.0,15,0.00,,,0.00,Wunderground v.1.15,2013-09-29 21:47:00,
2013-09-29 14:52:00,88.3,34.8,29.94,WNW,300,5.0,5.0,15,0.00,,,0.00,Wunderground v.1.15,2013-09-29 21:52:00,
2013-09-29 15:02:00,88.2,34.7,29.94,West,271,6.0,11.0,15,0.00,,,0.00,Wunderground v.1.15,2013-09-29 22:02:00,
2013-09-29 15:12:00,88.7,36.7,29.94,SW,235,4.0,11.0,16,0.00,,,0.00,Wunderground v.1.15,2013-09-29 22:12:00,
2013-09-29 15:22:00,88.5,36.6,29.94,NW,313,4.0,8.0,16,0.00,,,0.00,Wunderground v.1.15,2013-09-29 22:22:00,
2013-09-29 15:32:00,87.9,39.1,29.94,SW,229,6.0,6.0,18,0.00,,,0.00,Wunderground v.1.15,2013-09-29 22:32:00,
2013-09-29 15:42:00,87.6,38.8,29.93,WNW,291,6.0,6.0,18,0.00,,,0.00,Wunderground v.1.15,2013-09-29 22:42:00,
2013-09-29 15:52:00,87.6,41.6,29.93,WSW,246,5.0,5.0,20,0.00,,,0.00,Wunderground v.1.15,2013-09-29 22:52:00,
2013-09-29 16:02:00,87.1,42.4,29.93,WSW,244,6.0,6.0,21,0.00,,,0.00,Wunderground v.1.15,2013-09-29 23:02:00,
2013-09-29 16:12:00,86.5,43.1,29.93,WSW,249,5.0,5.0,22,0.00,,,0.00,Wunderground v.1.15,2013-09-29 23:12:00,
2013-09-29 16:22:00,85.3,43.3,29.93,SW,232,5.0,5.0,23,0.00,,,0.00,Wunderground v.1.15,2013-09-29 23:22:00,
2013-09-29 16:32:00,84.7,42.8,29.93,WNW,300,4.0,4.0,23,0.00,,,0.00,Wunderground v.1.15,2013-09-29 23:32:00,
2013-09-29 16:42:00,83.8,42.0,29.94,SW,229,6.0,6.0,23,0.00,,,0.00,Wunderground v.1.15,2013-09-29 23:42:00,
2013-09-29 16:52:00,84.0,45.4,29.93,SW,227,5.0,5.0,26,0.00,,,0.00,Wunderground v.1.15,2013-09-29 23:52:00,
2013-09-29 17:02:00,82.9,44.5,29.93,WSW,241,6.0,6.0,26,0.00,,,0.00,Wunderground v.1.15,2013-09-30 00:02:00,
2013-09-29 17:12:00,82.4,43.0,29.93,SW,234,5.0,14.0,25,0.00,,,0.00,Wunderground v.1.15,2013-09-30 00:12:00,
2013-09-29 17:22:00,82.4,46.9,29.93,West,275,3.0,8.0,29,0.00,,,0.00,Wunderground v.1.15,2013-09-30 00:22:00,
2013-09-29 17:32:00,81.6,45.3,29.93,West,262,3.0,3.0,28,0.00,,,0.00,Wunderground v.1.15,2013-09-30 00:32:00,
2013-09-29 17:37:00,81.2,46.8,29.94,WSW,238,4.0,4.0,30,0.00,,,0.00,Wunderground v.1.15,2013-09-30 00:37:00,
2013-09-29 17:47:00,79.5,48.7,29.94,SW,234,4.0,7.0,34,0.00,,,0.00,Wunderground v.1.15,2013-09-30 00:47:00,
2013-09-29 17:57:00,78.6,50.9,29.94,WNW,287,4.0,5.0,38,0.00,,,0.00,Wunderground v.1.15,2013-09-30 00:57:00,
2013-09-29 18:02:00,78.2,51.9,29.94,WSW,244,4.0,13.0,40,0.00,,,0.00,Wunderground v.1.15,2013-09-30 01:02:00,
2013-09-29 18:12:00,77.4,52.5,29.94,West,279,3.0,3.0,42,0.00,,,0.00,Wunderground v.1.15,2013-09-30 01:12:00,
2013-09-29 18:22:00,76.7,47.0,29.94,West,265,2.0,2.0,35,0.00,,,0.00,Wunderground v.1.15,2013-09-30 01:22:00,
2013-09-29 18:32:00,76.0,46.4,29.94,West,265,3.0,3.0,35,0.00,,,0.00,Wunderground v.1.15,2013-09-30 01:32:00,
2013-09-29 18:37:00,75.7,46.8,29.94,WNW,284,2.0,3.0,36,0.00,,,0.00,Wunderground v.1.15,2013-09-30 01:37:00,
2013-09-29 18:47:00,75.1,46.3,29.94,WNW,285,1.0,2.0,36,0.00,,,0.00,Wunderground v.1.15,2013-09-30 01:47:00,
2013-09-29 18:57:00,74.6,44.4,29.94,WNW,284,2.0,2.0,34,0.00,,,0.00,Wunderground v.1.15,2013-09-30 01:57:00,
2013-09-29 19:02:00,74.4,45.0,29.94,WNW,284,2.0,10.0,35,0.00,,,0.00,Wunderground v.1.15,2013-09-30 02:02:00,
2013-09-29 19:07:00,74.2,44.0,29.94,WNW,284,1.0,10.0,34,0.00,,,0.00,Wunderground v.1.15,2013-09-30 02:07:00,
2013-09-29 19:17:00,73.7,44.3,29.94,WNW,284,1.0,3.0,35,0.00,,,0.00,Wunderground v.1.15,2013-09-30 02:17:00,
2013-09-29 19:27:00,73.5,44.9,29.95,WNW,284,1.0,1.0,36,0.00,,,0.00,Wunderground v.1.15,2013-09-30 02:27:00,
2013-09-29 19:32:00,73.2,44.6,29.95,WNW,284,1.0,1.0,36,0.00,,,0.00,Wunderground v.1.15,2013-09-30 02:32:00,
2013-09-29 19:42:00,72.8,45.0,29.96,WNW,284,1.0,1.0,37,0.00,,,0.00,Wunderground v.1.15,2013-09-30 02:42:00,
2013-09-29 19:52:00,72.5,45.4,29.96,WNW,284,1.0,1.0,38,0.00,,,0.00,Wunderground v.1.15,2013-09-30 02:52:00,
2013-09-29 20:02:00,71.9,44.9,29.96,WNW,284,0.0,8.0,38,0.00,,,0.00,Wunderground v.1.15,2013-09-30 03:02:00,
2013-09-29 20:12:00,71.2,44.3,29.96,WNW,284,0.0,8.0,38,0.00,,,0.00,Wunderground v.1.15,2013-09-30 03:12:00,
2013-09-29 20:22:00,71.1,44.2,29.96,WNW,284,1.0,1.0,38,0.00,,,0.00,Wunderground v.1.15,2013-09-30 03:22:00,
2013-09-29 20:32:00,70.6,44.4,29.97,WNW,284,0.0,0.0,39,0.00,,,0.00,Wunderground v.1.15,2013-09-30 03:32:00,
2013-09-29 20:42:00,69.9,44.5,29.97,WNW,284,0.0,0.0,40,0.00,,,0.00,Wunderground v.1.15,2013-09-30 03:42:00,
2013-09-29 20:47:00,69.6,45.5,29.97,WNW,284,0.0,0.0,42,0.00,,,0.00,Wunderground v.1.15,2013-09-30 03:47:00,
2013-09-29 20:52:00,69.2,45.7,29.97,WNW,284,0.0,0.0,43,0.00,,,0.00,Wunderground v.1.15,2013-09-30 03:52:00,
2013-09-29 21:02:00,68.5,46.3,29.97,WNW,284,0.0,4.0,45,0.00,,,0.00,Wunderground v.1.15,2013-09-30 04:02:00,
2013-09-29 21:07:00,68.2,46.6,29.97,WNW,284,0.0,4.0,46,0.00,,,0.00,Wunderground v.1.15,2013-09-30 04:07:00,
2013-09-29 21:12:00,67.9,46.9,29.97,WNW,284,0.0,4.0,47,0.00,,,0.00,Wunderground v.1.15,2013-09-30 04:12:00,
2013-09-29 21:17:00,67.6,47.8,29.97,WNW,284,0.0,4.0,49,0.00,,,0.00,Wunderground v.1.15,2013-09-30 04:17:00,
2013-09-29 21:27:00,66.9,46.6,29.98,WNW,284,0.0,0.0,48,0.00,,,0.00,Wunderground v.1.15,2013-09-30 04:27:00,
2013-09-29 21:32:00,66.6,46.8,29.98,WNW,284,0.0,0.0,49,0.00,,,0.00,Wunderground v.1.15,2013-09-30 04:32:00,
2013-09-29 21:42:00,65.9,45.1,29.97,WNW,284,0.0,0.0,47,0.00,,,0.00,Wunderground v.1.15,2013-09-30 04:42:00,
2013-09-29 21:52:00,65.3,44.5,29.98,WNW,284,0.0,0.0,47,0.00,,,0.00,Wunderground v.1.15,2013-09-30 04:52:00,
2013-09-29 22:02:00,64.9,45.8,29.98,WNW,284,0.0,3.0,50,0.00,,,0.00,Wunderground v.1.15,2013-09-30 05:02:00,
2013-09-29 22:12:00,64.6,46.1,29.98,WNW,284,0.0,3.0,51,0.00,,,0.00,Wunderground v.1.15,2013-09-30 05:12:00,
2013-09-29 22:17:00,64.4,46.4,29.98,WNW,284,0.0,3.0,52,0.00,,,0.00,Wunderground v.1.15,2013-09-30 05:17:00,
2013-09-29 22:22:00,64.1,46.1,29.98,WNW,284,0.0,0.0,52,0.00,,,0.00,Wunderground v.1.15,2013-09-30 05:22:00,
2013-09-29 22:32:00,63.7,45.7,29.98,WNW,284,0.0,0.0,52,0.00,,,0.00,Wunderground v.1.15,2013-09-30 05:32:00,
2013-09-29 22:42:00,63.3,43.3,29.98,WNW,285,0.0,0.0,48,0.00,,,0.00,Wunderground v.1.15,2013-09-30 05:42:00,
2013-09-29 22:47:00,63.1,43.1,29.98,WNW,284,0.0,0.0,48,0.00,,,0.00,Wunderground v.1.15,2013-09-30 05:47:00,
2013-09-29 22:52:00,62.8,41.1,29.98,WNW,284,0.0,0.0,45,0.00,,,0.00,Wunderground v.1.15,2013-09-30 05:52:00,
2013-09-29 23:02:00,62.4,42.4,29.98,WNW,284,0.0,1.0,48,0.00,,,0.00,Wunderground v.1.15,2013-09-30 06:02:00,
2013-09-29 23:12:00,62.0,41.0,29.98,WNW,284,0.0,1.0,46,0.00,,,0.00,Wunderground v.1.15,2013-09-30 06:12:00,
2013-09-29 23:22:00,61.5,40.5,29.98,WNW,284,0.0,0.0,46,0.00,,,0.00,Wunderground v.1.15,2013-09-30 06:22:00,
2013-09-29 23:32:00,61.3,40.3,29.97,WNW,284,0.0,0.0,46,0.00,,,0.00,Wunderground v.1.15,2013-09-30 06:32:00,
2013-09-29 23:42:00,61.1,40.1,29.97,WNW,285,0.0,0.0,46,0.00,,,0.00,Wunderground v.1.15,2013-09-30 06:42:00,
2013-09-29 23:52:00,60.9,41.1,29.97,WNW,284,0.0,0.0,48,0.00,,,0.00,Wunderground v.1.15,2013-09-30 06:52:00,